Location: Brantley
(31.5822°N, 86.2569°W)
Time: 18:51:41
(UTC+00:00)

Vanguard 2 - Pass Details

Date: 25 February 2026
Orbit: 553 x 2896 km, 32.9° (Epoch: 10 March)

Event Time Altitude Azimuth Distance (km) Brightness Sun altitude
Rises 07:22:21 0° 230° (SW) 6,271 - -60.2°
Reaches altitude 10° 07:27:09 10° 225° (SW) 4,966 - -59.4°
Maximum altitude 07:39:38 49° 157° (SSE) 2,073 - -57.4°
Drops below altitude 10° 07:47:20 10° 85° (E) 3,136 - -56.1°
Exits shadow 07:47:56 - 83° (E) 3,309 11.1 -56.0°
Sets 07:49:41 0° 79° (E) 3,850 11.6 -55.7°
